Location: Bathurst
(33.4193°S, 149.5775°E)
Time: 16:25:47
(UTC+10:00)

X-37B - Visible Passes

Search period start: 15 May 2021 00:00
Search period end: 25 May 2021 00:00
Orbit: 386 x 389 km, 45.0° (Epoch: 08 May)

Date Brightness Start Highest point End Pass type
(mag) Time Alt. Az. Time Alt. Az. Time Alt. Az.
15 May 3.2 05:25:23 11° S 05:25:29 11° S 05:26:18 10° SSE visible
16 May 3.1 06:02:53 10° SSW 06:04:25 13° S 06:05:56 10° SE visible
17 May 3.4 05:06:15 11° SSE 05:06:15 11° SSE 05:06:41 10° SSE visible
18 May 2.9 05:42:50 12° SSW 05:44:34 16° SSE 05:46:43 10° ESE visible
19 May 3.7 04:47:09 11° SE 04:47:09 11° SE 04:47:27 10° SE visible
19 May 1.7 06:20:07 10° SW 06:23:10 38° SSE 06:26:13 10° E visible
20 May 2.4 05:23:48 21° S 05:24:39 23° SSE 05:27:19 10° ESE visible
21 May 4.0 04:28:12 10° ESE 04:28:12 10° ESE 04:28:13 10° ESE visible
21 May 0.7 06:00:30 15° SW 06:03:05 78° SSE 06:06:17 10° ENE visible
22 May 1.8 05:04:57 38° SE 05:04:57 38° SE 05:07:42 10° E visible
23 May 1.1 05:41:46 31° W 05:42:54 46° NW 05:45:59 10° NE visible
24 May 2.9 04:46:21 24° ENE 04:46:21 24° ENE 04:47:46 10° ENE visible
24 May 3.2 06:20:41 10° NW 06:20:48 10° NW 06:20:55 10° NW visible
